Mazatlan Airport, Mexico

7:05 AM MDT on June 28, 2017 (GMT -0600)
Gen Rafael Buelna International

Weather History for MMMZ - October, 2012

Change the Weather History Date:

Friday, October 19, 2012

  Actual Average Record
Temperature  
Mean Temperature 78 °F -  
Max Temperature 84 °F 86 °F 92 °F (2015)
Min Temperature 71 °F 69 °F 64 °F (2010)
Cooling Degree Days 12    
Growing Degree Days 28 (Base 50)    
Moisture  
Dew Point 73 °F    
Average Humidity 89    
Maximum Humidity 100    
Minimum Humidity 70    
Precipitation  
Precipitation 0.00 in - - ()
Sea Level Pressure  
Sea Level Pressure 29.78 in    
Wind  
Wind Speed 5 mph ()    
Max Wind Speed 10 mph    
Max Gust Speed -    
Visibility 5.9 miles    
Events Fog    
Averages and records for this station are not official NWS values.
T = Trace of Precipitation, MM = Missing Value Source: Averaged Metar Reports

Daily Weather History Graph

Daily Weather History Graph

Search for Another Location

Airport or City:

Trip Planner

Search our weather history database for the weather conditions in past years. The results will help you decide how hot, cold, wet, or windy it might be!

Date:

Astronomy

Oct. 19, 2012 Rise Set
Actual Time 7:03 AM MDT 6:35 PM MDT
Civil Twilight 6:41 AM MDT 6:58 PM MDT
Nautical Twilight 6:14 AM MDT 7:24 PM MDT
Astronomical Twilight 5:48 AM MDT 7:50 PM MDT
Moon 11:27 AM MDT (10/19) 10:38 PM MDT (10/19)
Length of Visible Light 12h 17m
Length of Day
11h 31m
Waxing Crescent, 24% of the Moon is Illuminated
Oct 19
Waxing Crescent
Oct 21
First Quarter
Oct 29
Full
Nov 6
Last Quarter
Nov 13
New

Hourly Weather History & Observations

Time (MDT) Temp. Heat Index Dew Point Humidity Pressure Visibility Wind Dir Wind Speed Gust Speed Precip Events Conditions
12:40 AM 73.4 °F - 71.6 °F 94% 29.80 in 10.0 mi North 5.8 mph - N/A   Clear
1:40 AM 71.6 °F - 69.8 °F 94% 29.79 in 10.0 mi Calm Calm - N/A   Clear
2:42 AM 71.6 °F - 69.8 °F 94% 29.77 in 1.0 mi North 5.8 mph - N/A   Scattered Clouds
3:50 AM 71.6 °F - 69.8 °F 94% 29.77 in 2.0 mi NNE 6.9 mph - N/A   Clear
4:40 AM 71.6 °F - 69.8 °F 94% 29.77 in 0.8 mi North 6.9 mph - N/A   Mostly Cloudy
5:53 AM 71.6 °F - 69.8 °F 94% 29.77 in 0.1 mi North 5.8 mph - N/A Fog Fog
6:41 AM 71.6 °F - 71.6 °F 100% 29.78 in 3.0 mi North 4.6 mph - N/A   Scattered Clouds
7:24 AM 73.4 °F - 73.4 °F 100% 29.79 in 0.4 mi NNE 6.9 mph - N/A Fog Fog
7:40 AM 73.4 °F - 73.4 °F 100% 29.79 in 0.2 mi NNE 6.9 mph - N/A Fog Fog
8:28 AM 75.2 °F - 73.4 °F 94% 29.80 in 0.4 mi NNE 6.9 mph - N/A Fog Fog
8:40 AM 75.2 °F - 73.4 °F 94% 29.81 in 1.0 mi NNE 6.9 mph - N/A   Overcast
9:05 AM 75.2 °F - 73.4 °F 94% 29.82 in 1.0 mi ESE 5.8 mph - N/A   Overcast
9:44 AM 75.2 °F - 73.4 °F 94% 29.82 in 1.5 mi SSE 4.6 mph - N/A   Overcast
10:08 AM 75.2 °F - 73.4 °F 94% 29.82 in 5.0 mi SSE 4.6 mph - N/A   Overcast
10:41 AM 78.8 °F - 75.2 °F 89% 29.82 in 7.0 mi ENE 5.8 mph - N/A   Overcast
11:03 AM 78.8 °F - 75.2 °F 89% 29.81 in 8.0 mi ESE 6.9 mph - N/A   Mostly Cloudy
11:48 AM 80.6 °F 85.4 °F 73.4 °F 79% 29.80 in 10.0 mi SSE 6.9 mph - N/A   Mostly Cloudy
12:43 PM 82.4 °F 89.5 °F 75.2 °F 79% 29.78 in 12.0 mi South 5.8 mph - N/A   Scattered Clouds
1:43 PM 84.2 °F 92.3 °F 75.2 °F 74% 29.75 in 12.0 mi WSW 8.1 mph - N/A   Scattered Clouds
2:40 PM 84.2 °F 92.3 °F 75.2 °F 74% 29.74 in 10.0 mi SW 8.1 mph - N/A   Partly Cloudy
3:46 PM 84.2 °F 92.3 °F 75.2 °F 74% 29.72 in 8.0 mi WSW 9.2 mph - N/A   Partly Cloudy
4:40 PM 82.4 °F 87.2 °F 71.6 °F 70% 29.72 in 7.0 mi West 10.4 mph - N/A   Clear
5:43 PM 82.4 °F 88.2 °F 73.4 °F 74% 29.72 in 8.0 mi West 8.1 mph - N/A   Clear
6:40 PM 78.8 °F - 71.6 °F 78% 29.74 in 10.0 mi WSW 8.1 mph - N/A   Clear
7:40 PM 75.2 °F - 71.6 °F 89% 29.76 in 10.0 mi NW 6.9 mph - N/A   Clear
8:44 PM 75.2 °F - 73.4 °F 94% 29.78 in 8.0 mi North 6.9 mph - N/A   Mostly Cloudy
9:43 PM 75.2 °F - 73.4 °F 94% 29.80 in 8.0 mi North 6.9 mph - N/A   Scattered Clouds
10:50 PM 73.4 °F - 71.6 °F 94% 29.81 in 8.0 mi North 5.8 mph - N/A   Partly Cloudy
11:46 PM 73.4 °F - 71.6 °F 94% 29.81 in 8.0 mi North 6.9 mph - N/A   Partly Cloudy